Home > Weather > Victoria > Past weeks

Flag for Canada Weather for the Past 2 Weeks in Victoria, British Columbia, Canada

Now
43 °F

Mostly cloudy.


Feels Like: 39 °F
Forecast: 46 / 49 °F
Wind: 6 mph from Northwest

Location: Victoria Int. Airportb. C.

Current Time: Feb 11, 2016 at 7:29:21 AM

Latest Report: Feb 11, 2016 at 7:00 AM


Visibility: 20 mi

Pressure: 30.22 "Hg

Humidity: 93%

Dew point: 41 °F

Location of VictoriaLocation

Historic Weather in Victoria — Graph

°F

Victoria Temperature Yesterday

Maximum temperature yesterday: 52 °F (at 4:00 PM)
Minimum temperature yesterday: 39 °F (at 10:00 PM)
Average temperature yesterday: 46 °F

High & Low Weather Summary for the Past Weeks

 TemperatureHumidityPressure
High55 °F (Feb 9, 2:00 PM)100% (Jan 27, 6:00 AM)30.62 "Hg (Jan 27, 6:00 AM)
Low34 °F (Feb 1, 1:00 AM)59% (Feb 9, 2:00 PM)29.58 "Hg (Jan 29, 12:00 PM)
Average44 °F87%30.13 "Hg
* Reported Jan 27 6:00 AM — Feb 11 6:00 AM, Victoria, Weather by CustomWeather, © 2016

Note: Actual official high and low records may vary slightly from our data, if they occured in-between our weather recording intervals... More about our weather records

Advertising

Victoria Weather History for the Previous 24 Hours

 ConditionsComfort  
Time TempWeatherWind HumidityBarometerVisibility
6:00 AM
Thu, Feb 11
43 °FMostly cloudy.7 mph93%30.23 "Hg15 mi
5:00 AM43 °FMostly cloudy.5 mph93%30.25 "Hg15 mi
4:00 AM41 °FMostly cloudy.7 mph100%30.26 "Hg20 mi
3:00 AM41 °FPassing clouds.6 mph100%30.27 "Hg20 mi
2:00 AM39 °FPassing clouds.5 mph100%30.27 "Hg30 mi
1:00 AM37 °FPassing clouds.5 mph100%30.29 "Hg30 mi
12:00 AM43 °FClear.3 mph93%30.30 "Hg30 mi
11:00 PM
Wed, Feb 10
43 °FPassing clouds.10 mph93%30.29 "Hg30 mi
10:00 PM39 °FPassing clouds.2 mph100%30.29 "Hg30 mi
9:00 PM43 °FClear.3 mph100%30.29 "Hg30 mi
8:00 PM45 °FPassing clouds.3 mph100%30.27 "Hg30 mi
7:00 PM46 °FPassing clouds.8 mph93%30.25 "Hg30 mi
6:00 PM50 °FPassing clouds.8 mph88%30.24 "Hg20 mi
5:00 PM50 °FPassing clouds.8 mph94%30.21 "Hg20 mi
4:00 PM52 °FLight rain. Partly sunny.12 mph94%30.20 "Hg20 mi
3:00 PM50 °FLight rain. Broken clouds.5 mph94%30.18 "Hg20 mi
2:00 PM50 °FLight rain. Partly sunny.7 mph88%30.16 "Hg20 mi
1:00 PM50 °FBroken clouds.7 mph94%30.16 "Hg20 mi
12:00 PM48 °FPartly sunny.6 mph94%30.16 "Hg20 mi
11:00 AM46 °FLight rain. Low clouds.3 mph100%30.15 "Hg12 mi
10:00 AM46 °FLight rain. Mostly cloudy.No wind93%30.12 "Hg15 mi
9:00 AM45 °FLight rain. Cloudy.9 mph100%30.14 "Hg15 mi
8:00 AM45 °FSprinkles. Overcast.3 mph93%30.09 "Hg15 mi
7:00 AM45 °FSprinkles. Overcast.7 mph93%30.08 "Hg15 mi
Weather by CustomWeather, © 2016

See weather overviewHow to use our weather pages